Theta_e
302 302 302 303 303 303 303 303 303 303 304 310 315 318 319 319 319 320 321 320 319 319 321 320 319 320 319 319 319 316 317 316 316 316 315 314 311 310 299 295 294 294 294
302 303 303 304 303 303 302 302 302 303 303 304 311 315 318 318 320 320 320 319 320 319 320 321 320 319 317 318 317 317 317 316 315 316 315 313 310 301 295 294 294 294 294
302 302 303 304 303 303 302 302 302 302 303 303 308 314 317 318 318 319 318 318 320 319 319 320 320 319 317 316 317 317 315 316 317 315 314 311 302 295 294 293 293 294 293
302 303 303 304 303 303 302 302 302 302 303 305 308 313 316 318 319 318 318 318 318 318 318 318 318 316 316 316 316 316 316 315 312 310 307 298 295 294 294 293 293 293 293
303 303 304 304 304 303 304 304 304 304 306 309 312 314 316 315 316 318 317 316 317 316 316 314 314 314 314 315 315 314 312 302 296 296 295 295 294 294 293 293 293 293 292
303 304 304 304 304 305 305 305 306 306 308 309 312 313 314 313 313 314 314 314 315 314 314 314 313 313 314 311 309 303 297 296 296 295 295 294 294 294 293 293 293 293 292
303 304 304 304 304 305 305 305 307 307 308 310 311 312 312 312 312 312 312 313 313 312 312 311 312 312 311 307 298 296 295 295 294 294 294 294 294 294 293 293 293 293 292
303 303 302 301 303 304 306 306 306 307 308 308 308 310 310 311 311 311 312 311 309 309 309 309 306 305 302 296 295 295 295 294 294 294 294 294 293 293 293 293 293 293 292
304 302 298 296 298 303 303 305 306 307 307 307 309 310 309 311 310 310 309 308 308 307 305 302 297 296 295 295 294 294 295 294 294 294 293 294 294 293 293 293 293 292 292
304 302 299 295 295 302 304 304 304 306 306 306 306 306 307 307 307 307 307 305 303 300 297 296 295 294 294 294 294 293 294 294 294 293 293 294 294 293 293 293 293 292 292
301 302 299 295 294 294 297 302 302 303 305 304 305 305 305 305 305 304 302 299 296 295 295 295 294 294 294 294 293 293 293 294 294 293 294 294 293 293 293 293 293 292 292
294 294 294 294 294 294 293 296 300 301 302 303 304 305 305 304 301 299 297 296 295 294 294 294 294 294 293 293 293 293 293 293 293 293 293 293 293 293 293 292 292 292 292
296 295 294 294 294 293 293 293 293 298 299 299 301 302 303 300 297 297 296 295 294 293 293 293 293 293 293 293 293 293 293 293 293 293 293 293 293 293 292 292 292 292 292
296 295 295 295 294 294 293 293 293 293 294 295 296 297 300 298 296 295 294 293 293 293 293 293 293 293 293 293 293 293 293 293 293 292 292 292 292 292 292 292 292 291 291
297 296 296 296 295 294 294 294 293 293 293 293 293 293 293 293 293 293 293 293 293 292 293 293 293 293 293 293 293 293 293 293 293 293 293 292 292 292 292 291 291 291 291
301 300 299 297 296 295 294 294 294 293 293 293 292 293 293 293 292 292 292 292 292 293 293 293 293 293 293 293 293 293 293 293 293 292 292 292 292 291 291 291 291 291 291
301 301 301 300 299 297 296 295 294 294 293 293 293 292 292 292 293 293 292 292 291 291 292 292 292 292 292 292 292 292 292 292 292 292 292 291 291 291 291 290 290 290 290
305 303 301 300 300 300 299 297 295 295 294 293 293 293 293 292 292 292 292 292 292 293 293 292 292 292 292 292 292 291 291 291 291 291 291 291 291 290 290 290 290 290 290
305 305 304 301 300 300 300 300 299 297 296 294 294 293 293 292 292 292 292 292 292 292 293 293 293 292 292 292 292 291 291 291 291 291 290 290 290 290 290 289 289 289 289
306 305 304 303 301 299 298 299 299 299 299 297 296 294 293 292 292 292 292 292 292 292 293 293 292 292 292 291 291 291 291 291 290 290 290 290 290 289 289 289 288 288 288
304 304 303 302 302 301 299 299 299 298 298 298 298 297 294 293 292 292 291 292 292 292 292 292 292 292 291 291 291 291 290 290 290 290 290 290 289 289 289 288 288 288 288
303 303 302 302 302 301 300 299 300 300 298 297 296 297 297 296 294 293 294 294 293 292 292 292 291 291 291 291 291 290 290 290 290 290 289 289 289 289 288 288 288 287 287
301 301 301 300 300 299 299 298 298 298 298 297 295 295 296 296 296 295 294 294 296 297 296 294 293 293 293 292 291 290 290 290 290 290 289 289 289 288 288 288 288 287 287
299 298 298 298 298 297 297 297 297 297 297 296 296 295 294 294 294 296 296 295 294 293 295 297 297 298 300 296 293 292 291 290 290 290 289 288 288 288 288 287 287 287 287
297 297 297 296 296 296 296 295 295 295 295 296 295 294 294 292 292 292 292 293 293 294 294 294 296 297 298 298 298 298 293 291 290 290 289 289 288 288 288 287 287 287 287
296 295 295 294 294 294 294 294 294 294 294 294 294 293 292 292 291 291 291 290 291 292 293 293 294 294 295 295 295 294 294 291 291 290 290 289 288 288 287 287 287 286 286
Wind_Speed
9 8 8 7 5 4 4 6 9 12 14 16 15 13 12 15 11 14 13 15 15 16 15 13 12 11 9 10 11 8 8 10 11 11 12 12 9 7 7 7 8 10 11
7 10 10 9 8 5 3 4 7 11 12 14 15 15 13 13 12 12 15 15 13 11 12 13 13 13 9 9 10 7 11 11 10 14 12 11 6 4 4 4 6 8 12
8 9 9 7 7 5 4 2 1 6 12 14 15 16 14 12 11 12 11 12 11 10 10 11 11 11 8 9 9 9 8 8 8 9 8 7 4 2 1 2 5 9 10
6 7 7 7 8 8 7 5 4 6 10 11 11 12 13 13 12 12 9 10 10 10 9 8 9 9 6 5 7 7 6 7 8 7 8 7 5 3 1 1 2 7 9
5 7 9 10 10 8 8 7 7 7 10 13 13 14 13 12 11 10 11 10 9 8 6 7 5 5 7 6 7 6 6 5 6 7 7 6 5 4 4 3 2 3 7
6 6 8 8 7 7 8 9 8 7 9 12 11 10 10 9 9 8 6 4 8 7 7 7 7 8 8 7 6 6 6 7 7 7 8 8 8 7 7 6 4 2 1
5 5 5 5 6 7 7 7 8 7 8 8 10 8 7 6 7 8 10 10 9 8 9 7 9 11 11 9 8 8 9 9 10 10 9 10 10 9 8 8 7 6 7
3 4 3 3 3 4 5 5 5 6 7 6 6 7 6 7 9 9 9 10 7 5 8 7 7 8 10 10 10 9 9 10 11 12 12 11 11 11 10 8 8 9 8
2 1 1 1 4 6 5 5 3 3 4 5 6 7 8 9 8 9 9 8 6 9 10 9 9 9 9 9 9 10 12 12 12 12 12 11 11 10 9 8 7 8 8
3 2 0 1 1 5 7 5 3 2 3 4 4 5 5 5 6 8 7 8 9 8 7 7 7 8 10 12 12 11 12 13 13 13 12 11 10 10 10 10 8 4 3
5 4 2 1 2 2 4 6 8 10 9 9 8 6 6 6 8 8 8 7 7 6 7 9 11 12 12 13 14 13 10 11 13 13 12 11 10 10 9 8 8 8 7
5 5 4 4 4 4 5 6 6 9 13 12 11 10 10 9 9 9 9 8 9 10 10 12 12 13 14 14 13 13 13 13 12 12 12 11 11 10 8 7 7 8 8
7 7 6 6 6 6 6 7 9 10 12 12 13 13 13 12 12 12 12 11 11 12 12 12 12 13 14 14 14 14 14 13 14 13 13 12 11 9 8 7 6 6 5
9 9 10 9 9 9 9 9 10 11 12 12 12 12 13 14 14 14 14 13 13 14 14 15 15 15 15 15 15 16 16 16 15 15 14 13 12 11 9 8 6 6 5
14 13 13 13 13 12 11 12 12 13 13 14 15 16 15 14 13 14 15 15 15 16 17 17 17 17 17 17 17 17 18 18 18 17 16 16 15 14 12 11 9 8 6
20 19 17 16 15 16 15 16 15 15 16 16 17 17 16 17 19 19 19 19 19 19 19 19 19 19 20 19 19 20 20 20 20 20 20 19 18 17 16 15 14 13 11
23 23 23 23 22 21 19 19 18 18 19 19 19 19 18 19 20 20 20 21 22 23 24 23 23 23 22 22 23 23 23 22 23 23 23 22 22 22 21 19 18 17 16
23 25 26 27 27 26 25 23 22 22 23 23 21 20 21 21 22 22 23 25 26 28 27 27 26 26 26 26 26 26 25 26 26 26 26 26 26 25 25 23 22 21 19
27 27 27 28 30 29 29 28 28 28 27 27 26 27 26 25 25 26 28 31 31 31 31 29 27 27 27 28 29 29 29 29 30 30 29 28 28 28 28 26 25 24 23
31 31 30 29 31 32 33 32 32 32 31 32 32 31 29 31 33 33 34 34 34 34 32 31 30 29 28 29 31 32 33 34 33 33 32 30 30 31 30 28 28 27 26
31 31 31 30 31 32 33 33 31 30 32 33 34 34 34 35 36 36 36 36 35 33 33 33 31 30 30 29 31 33 35 36 35 34 34 33 33 33 32 31 31 30 29
29 27 28 29 29 30 30 31 30 30 30 31 31 33 35 39 40 41 39 39 36 35 35 36 35 32 30 30 31 34 35 36 36 36 35 34 33 33 34 32 32 33 32
27 25 25 26 27 27 27 28 28 27 26 26 27 29 32 37 40 43 43 42 40 38 38 37 37 35 34 34 34 35 37 38 36 35 35 34 33 33 34 35 34 35 35
25 24 24 24 24 24 25 25 25 25 24 24 25 27 29 31 33 37 40 41 42 42 41 42 41 40 42 40 37 37 37 37 38 37 36 36 35 34 35 35 35 34 35
24 24 24 23 23 23 23 24 24 24 23 23 23 24 26 28 29 30 32 33 35 37 40 42 44 44 42 42 43 43 41 38 39 39 38 38 38 37 36 35 36 36 36
24 23 23 22 22 21 21 23 22 22 22 21 21 22 23 25 27 27 27 27 30 31 33 34 37 37 39 39 39 38 39 39 38 40 41 40 40 39 38 37 38 38 37
Wind_Direction
352 0 11 9 11 357 315 265 244 232 216 212 212 213 220 219 210 210 218 216 222 229 234 224 225 225 227 221 193 209 191 193 213 214 237 263 271 306 325 335 354 4 10
360 3 8 17 19 7 337 301 250 222 221 212 207 198 198 199 188 196 211 217 221 224 227 225 224 215 214 191 211 221 201 217 253 260 240 241 251 282 304 348 6 15 19
17 10 18 20 23 17 3 322 262 206 188 192 196 195 193 191 211 211 209 213 211 217 205 214 216 219 229 233 223 218 220 253 258 256 241 233 243 242 321 337 24 25 24
21 25 16 29 34 38 38 46 91 136 158 165 170 179 183 189 192 190 196 200 203 205 204 187 197 212 220 218 210 211 235 249 250 235 213 194 196 154 125 115 44 41 35
47 32 31 38 42 45 57 66 90 121 142 149 153 170 174 202 188 179 188 195 199 190 178 189 207 216 229 216 209 225 239 231 198 180 173 171 153 139 108 124 158 73 44
103 78 56 47 53 58 67 77 96 119 134 143 152 156 152 157 159 184 185 201 181 197 209 210 202 195 211 212 207 205 199 178 173 166 158 148 131 129 131 109 110 122 89
136 111 77 66 56 58 72 94 108 115 116 127 140 146 158 150 174 187 177 177 190 195 189 190 201 201 206 207 192 179 172 164 156 145 144 140 137 124 125 107 93 97 107
149 138 112 109 113 78 76 94 104 123 137 141 148 147 160 156 174 182 193 192 185 217 220 209 212 214 203 188 174 175 167 158 149 144 139 137 125 112 113 124 106 86 86
174 347 11 120 144 157 135 99 110 133 126 156 169 187 183 184 195 217 215 202 209 227 223 220 196 183 186 180 169 172 161 157 147 139 134 127 114 110 106 104 110 92 91
186 186 333 354 160 162 172 173 179 161 162 155 162 201 204 202 215 221 215 212 222 215 211 201 193 178 183 181 161 166 165 156 153 147 140 132 128 116 100 89 88 113 127
222 226 224 207 210 215 192 180 177 185 192 195 188 195 206 225 224 227 212 202 209 226 218 206 188 184 187 186 169 165 167 165 159 153 148 147 134 122 113 109 106 100 96
234 244 253 254 232 214 214 215 206 199 197 201 209 222 224 231 229 223 220 221 211 205 209 205 198 197 197 191 180 177 177 178 174 169 169 163 154 143 138 133 119 103 96
240 246 250 257 257 251 242 232 228 219 222 222 221 218 220 219 217 217 220 221 218 209 209 211 212 215 213 202 195 193 192 191 190 189 186 180 176 169 167 157 140 128 120
238 249 255 257 253 253 256 247 240 236 237 237 240 235 229 228 225 220 218 218 217 218 218 219 221 219 217 212 209 206 204 203 202 203 201 198 197 196 193 188 181 172 159
241 241 246 249 252 253 247 248 248 245 243 240 235 236 236 233 230 229 228 222 222 222 223 223 225 224 224 223 219 215 214 213 213 214 213 214 214 213 211 210 211 209 203
253 251 251 254 254 253 252 255 255 252 254 249 246 247 247 239 231 228 225 229 231 231 231 234 232 230 230 229 226 224 224 224 223 223 222 222 223 224 224 223 223 224 222
259 258 257 255 253 253 253 254 256 256 255 254 254 250 245 244 246 247 245 243 242 241 239 237 236 236 235 235 234 232 231 231 231 231 229 228 228 229 228 228 228 229 229
261 260 256 254 253 252 253 257 256 255 258 260 257 257 258 255 250 247 247 249 249 251 251 249 246 244 242 242 241 241 240 239 238 237 236 235 234 234 234 233 233 234 233
263 260 259 259 257 255 252 250 251 252 253 257 255 252 250 249 248 252 254 254 255 254 254 254 255 254 254 253 251 249 247 246 246 244 243 243 242 241 240 237 235 234 235
261 262 261 258 256 254 252 250 250 251 253 254 256 256 254 251 249 249 249 252 254 257 259 261 261 259 255 255 254 253 251 249 248 249 249 248 247 246 245 242 239 239 238
259 261 264 265 261 258 256 256 257 258 258 258 258 256 256 256 259 259 259 258 259 261 263 265 264 264 263 257 256 255 253 252 251 251 251 250 249 250 249 246 242 238 236
259 260 262 264 265 262 260 260 257 257 258 262 262 258 255 254 255 258 259 259 260 261 262 264 265 264 262 261 258 257 256 254 253 251 251 251 250 248 248 245 242 240 236
259 258 259 260 262 263 261 261 262 263 263 263 262 261 260 258 256 257 258 260 261 262 262 261 261 261 262 260 259 257 257 257 256 254 251 250 249 248 247 246 243 240 236
254 254 254 254 256 258 261 261 264 263 263 265 266 268 270 268 265 263 262 261 259 258 257 260 259 261 265 262 259 257 256 255 254 253 250 248 247 244 244 244 243 242 240
254 254 253 252 254 254 256 260 261 263 265 265 267 268 268 269 268 266 267 265 262 259 257 257 256 260 261 264 265 263 252 249 248 250 248 247 245 243 243 243 243 240 238
257 255 254 252 251 252 254 257 258 259 260 262 264 265 268 269 270 270 269 267 266 264 262 259 258 261 265 266 266 264 250 245 245 246 246 243 242 241 241 241 241 240 238